Regional Weather Roundup
Issued by NWS

Home | Current Version | Previous Version | Graphics & Text | Print | Product List | Glossary On
Versions: 1 2 3 4 5 6 7 8 9 10 11 12 13 14 15 16 17 18 19 20 21 22 23 24 25 26 27 28 29 30 31 32 33 34 35 36 37 38 39 40 41 42 43 44 45 46 47 48 49 50
000
ASUS43 KLOT 020210
RWRIL

ILLINOIS REGIONAL WEATHER ROUNDUP
NATIONAL WEATHER SERVICE CHICAGO/ROMEOVILLE IL
900 PM CDT WED OCT 01 2014

NOTE: "FAIR" INDICATES FEW OR NO CLOUDS BELOW 12,000 FEET WITH NO
SIGNIFICANT WEATHER AND/OR OBSTRUCTIONS TO VISIBILITY.

* THESE STATIONS ARE NOT UNDER NWS QUALITY CONTROL. THEY ALSO MAY NOT
  REPORT WEATHER SUCH AS PRECIPITATION OR FOG.

ILZ001-002-007-009-015-016-024-020300-
NORTHWEST ILLINOIS

CITY           SKY/WX    TMP DP  RH WIND       PRES   REMARKS
MOLINE         PTCLDY    60  58  92 CALM      29.84R FOG
SAVANNA*       MOCLDY    64  59  82 CALM      29.85R
$$

ILZ003-004-008-010-011-017-018-020300-
NORTH CENTRAL ILLINOIS

CITY           SKY/WX    TMP DP  RH WIND       PRES   REMARKS
ROCKFORD       NOT AVBL
FREEPORT*      CLOUDY    64  56  75 E5        29.89R
ROCHELLE*      CLOUDY    66  56  69 SE7       29.88R
DE KALB*       CLOUDY    62  55  75 SE8       29.89S
PERU*          CLOUDY    70  59  66 SE7       29.87R
$$

ILZ005-006-012>014-019>023-020300-
NORTHEAST ILLINOIS

CITY           SKY/WX    TMP DP  RH WIND       PRES   REMARKS
CHICAGO-OHARE  MOCLDY    66  53  63 SE10      29.90S
CHICAGO-MIDWAY CLOUDY    68  53  58 SE9       29.91R
AURORA         CLOUDY    67  54  63 SE8       29.89R
LANSING*       MOCLDY    64  52  63 SE10      29.91S
JOLIET*        CLOUDY    66  54  64 SE9       29.89S
WAUKEGAN       NOT AVBL
DUPAGE AIRPORT CLOUDY    66  53  63 SE7       29.89R
KANKAKEE*      CLOUDY    66  55  67 SE10      29.91S
WHEELING       CLOUDY    66  53  63 SE7       29.92S
MORRIS*        CLOUDY    68  58  69 SE9       29.88R
ROMEOVILLE*    CLOUDY    66  52  61 SE13      29.89S
NORTHERLY ISL    N/A     64  56  75 E8          N/A
$$

LMZ740>746-020300-
SOUTHERN LAKE MICHIGAN

STATION/POSITION SKY/WX   TEMP    WIND        PRES    VSBY  WAVE
                          AIR SEA DIR/SP/G                  HT/PER
                          (F)     (DEG/KT/KT) (MB)    (MI)  (FT/S)
SOUTHERN BUOY              63 62  130/ 12/ 14 1014.1S         2/ 3
WAUKEGAN HARBOR            62     130/ 12/ 13   N/A
HARRISON CRIB              65     120/ 12/ 15   N/A
BURNHAM HARBOR             64     110/  8/  9   N/A
CALUMET HARBOR             67     110/ 10/ 15 1011.9S
MICHIGAN CITY              64     110/ 10/ 13   N/A
MICHIGAN CITY 6N           65 64  140/ 14/ 17   N/A           1/ 2
ST. JOSEPH                 63 63  110/ 12/ 17   N/A           1/ 2
$$

ILZ025>027-034>036-040-047-049-050-058-095>099-020300-
WEST-CENTRAL ILLINOIS

CITY           SKY/WX    TMP DP  RH WIND       PRES   REMARKS
QUINCY         LGT RAIN  65  63  93 S7        29.85R
GALESBURG*     CLOUDY    67  64  89 S8        29.83R THUNDER
MACOMB*        CLOUDY    67  65  93 SE9       29.85S
JACKSONVILLE*  TSTM      68  67  95 E9        29.86F
PITTSFIELD*    LGT RAIN  67  64  93 CALM      29.88R
$$

ILZ028>032-037-038-041>044-048-051>054-059>061-020300-
CENTRAL ILLINOIS

CITY           SKY/WX    TMP DP  RH WIND       PRES   REMARKS
PONTIAC        CLOUDY    72  59  64 SE5       29.89R
BLOOMINGTON    LGT RAIN  68  64  86 S7          N/A
DECATUR        CLOUDY    73  60  63 SE6       29.90R
PEORIA         LGT RAIN  71  64  78 S13       29.85F
LACON*         LGT RAIN  67  63  85 S7        29.84S
LINCOLN*       LGT RAIN  68  66  92 N3        29.87R
SPRINGFIELD    RAIN      69  66  90 SE8       29.89R FOG
TAYLORVILLE    RAIN      70  63  78 SE7       29.88S
$$

ILZ033-039-045-046-055>057-062-063-020300-
EAST-CENTRAL ILLINOIS

CITY           SKY/WX    TMP DP  RH WIND       PRES   REMARKS
DANVILLE*      MOCLDY    67  60  76 SE6       29.90R
RANTOUL*       CLOUDY    71  60  66 SE8       29.92R
MATTOON        CLOUDY    71  57  61 SE7       29.91R
PARIS*         CLOUDY    69  63  79 E3        29.93R
$$

ILZ079-100>102-020300-
SOUTHWEST ILLINOIS

CITY           SKY/WX    TMP DP  RH WIND       PRES   REMARKS
ALTON          MOCLDY    75  61  60 SE7       29.85R
BELLEVILLE     CLOUDY    76  64  66 E7        29.85R
CAHOKIA*       CLOUDY    79  64  60 S6        29.84R HX  81
SPARTA*        CLOUDY    75  63  65 S6        29.88R
$$

ILZ064>066-069>071-074>076-080>082-084>086-088>090-092>094-020300-
SOUTH-CENTRAL ILLINOIS

CITY           SKY/WX    TMP DP  RH WIND       PRES   REMARKS
CARBONDALE     PTCLDY    74  62  66 S7        29.89R
CAIRO*         PTCLDY    74  64  69 SE6       29.89S
EFFINGHAM*     CLOUDY    73  56  55 SE3       29.90R
MARION         PTCLDY    72  63  73 S6        29.91R
CENTRALIA*     MOCLDY    73  61  65 SE6       29.89R
SALEM*         CLOUDY    75  64  68 CALM      29.90R
METROPOLIS*    CLEAR     76  62  62 SE5       29.90R
$$

ILZ067-068-072-073-078-083-087-091-020300-
SOUTHEAST ILLINOIS

CITY           SKY/WX    TMP DP  RH WIND       PRES   REMARKS
LAWRENCEVILLE  CLEAR     68  58  70 SE7       29.91S
FLORA*         CLEAR     69  59  69 SE6       29.91R
FAIRFIELD*     PTCLDY    68  63  83 CALM      29.90R
HARRISBURG*    PTCLDY    69  61  75 CALM      29.92R
ROBINSON*      PTCLDY    68  60  75 S3        29.92R
CARMI*         CLEAR     66  61  82 S5        29.90R
$$

ABBREVIATIONS USED IN REMARKS
   TC - TEMPERATURE IN CELSIUS
  WCI - WIND CHILL INDEX
   HX - HEAT INDEX
  VSB - VISIBILITY
$$




USA.gov is the U.S. government's official web portal to all federal, state and local government web resources and services.